Location: Foggia
(41.4500°N, 15.5670°E)
Time: 08:23:07
(UTC+02:00)

ISS - Visible Passes

Search period start: 08 May 2021 00:00
Search period end: 18 May 2021 00:00
Orbit: 418 x 421 km, 51.6° (Epoch: 08 May)

Date Brightness Start Highest point End Pass type
(mag) Time Alt. Az. Time Alt. Az. Time Alt. Az.
08 May -1.3 02:49:24 18° NNW 02:49:40 18° NNW 02:52:08 10° NNE visible
08 May -0.9 04:25:22 10° NNW 04:27:27 15° N 04:29:33 10° NE visible
09 May -0.8 02:03:26 18° NNE 02:03:26 18° NNE 02:04:47 10° NE visible
09 May -0.8 03:37:48 10° NW 03:39:47 15° N 03:41:46 10° NE visible
10 May -0.3 01:17:27 10° NE 01:17:27 10° NE 01:17:29 10° NE visible
10 May -0.8 02:50:22 11° NW 02:52:05 15° N 02:54:07 10° NNE visible
10 May -1.0 04:27:16 10° NNW 04:29:52 20° NNE 04:32:27 10° ENE visible
11 May -0.8 02:04:21 16° N 02:04:25 16° N 02:06:36 10° NNE visible
11 May -0.8 03:39:55 10° NNW 03:42:13 17° NNE 03:44:32 10° NE visible
12 May -0.5 01:18:17 14° NNE 01:18:17 14° NNE 01:19:12 10° NNE visible
12 May -0.6 02:52:28 10° NNW 02:54:33 15° N 02:56:38 10° NE visible
12 May -1.9 04:28:59 10° NW 04:32:07 34° NNE 04:35:14 10° E visible
13 May -0.6 02:05:02 11° NNW 02:06:52 15° N 02:08:51 10° NE visible
13 May -1.4 03:41:40 10° NW 03:44:33 25° NNE 03:47:25 10° E visible
14 May -0.6 01:18:39 14° NNW 01:19:10 15° N 01:21:11 10° NNE visible
14 May -1.0 02:54:20 10° NNW 02:56:56 20° NNE 02:59:32 10° ENE visible
14 May -3.7 04:30:46 10° NW 04:34:10 83° NE 04:37:32 10° ESE visible
14 May -2.7 21:14:29 10° SSW 21:17:19 25° SE 21:20:09 10° ENE visible
14 May -2.5 22:50:47 10° W 22:54:00 41° NNW 22:55:41 23° NNE visible
15 May -0.7 00:29:18 10° NW 00:31:29 16° N 00:33:40 10° NNE visible
15 May -0.7 02:06:59 10° NNW 02:09:18 17° NNE 02:11:37 10° NE visible
15 May -2.9 03:43:23 10° NW 03:46:42 51° NNE 03:50:00 10° ESE visible
15 May -3.4 22:03:10 10° WSW 22:06:30 64° NNW 22:09:51 10° NE visible
15 May -0.9 23:41:23 10° WNW 23:43:49 18° NNW 23:46:15 10° NNE visible
16 May -0.6 01:19:31 10° NNW 01:21:37 15° N 01:23:42 10° NE visible
16 May -2.0 02:56:02 10° NW 02:59:11 34° NNE 03:02:18 10° E visible
16 May -3.1 04:32:54 10° WNW 04:35:58 33° SW 04:39:02 10° SSE visible
16 May -3.9 21:15:43 10° SW 21:19:04 77° SE 21:22:26 10° ENE visible
16 May -1.2 22:53:28 10° WNW 22:56:11 22° NNW 22:58:55 10° NE visible
17 May -0.5 00:31:57 10° NW 00:33:55 14° N 00:35:54 10° NE visible
17 May -1.5 02:08:43 10° NW 02:11:36 25° NNE 02:14:30 10° E visible
17 May -3.8 03:45:17 10° WNW 03:48:37 57° SW 03:51:56 10° SE visible
17 May -1.6 22:05:37 10° W 22:08:36 29° NNW 22:11:35 10° NE visible
17 May -0.5 23:44:13 10° NW 23:46:14 15° N 23:48:14 10° NNE visible
